Wind_Speed
43 42 43 46 49 50 47 44 41 32 22 22 23 23 23 21 21 20 22 27 27 26 25 27 30 29 33 40 40 38 37 39 42 40 36 34 34 35 34 34 33 32 30 28 27 26 26 28 28 27 26 27 26 25 25 25 25 25 25 27 29 29 31 32 32 31 30 28 27 27 27 26 25 25 25 25 25 27 29 29 30 31 31 32 32 32
42 42 45 49 49 45 41 40 36 32 25 21 20 20 21 23 22 19 21 26 27 27 25 22 25 26 30 38 39 39 40 40 42 42 37 34 34 36 35 34 33 31 30 28 26 26 26 27 27 27 27 27 27 27 27 28 27 26 26 27 28 28 30 32 33 33 32 30 28 28 28 27 27 27 26 26 26 27 28 29 30 31 32 32 32 32
34 39 44 46 45 38 35 38 37 35 28 20 20 21 20 22 21 19 21 24 25 27 26 21 24 27 30 38 41 40 42 42 42 42 40 36 35 37 35 33 33 32 31 29 27 26 26 27 27 28 28 28 29 29 30 30 29 28 28 27 27 27 28 30 32 33 33 32 30 30 30 30 30 29 28 28 28 28 28 29 31 32 32 32 32 32
25 35 42 39 39 35 31 33 34 34 29 21 21 22 22 22 20 21 21 22 25 26 24 22 27 33 36 41 46 44 43 44 42 41 40 39 38 38 36 34 34 34 32 30 28 26 26 27 28 28 29 31 32 32 32 32 31 30 29 28 27 27 28 29 30 31 33 33 32 32 32 32 32 31 31 31 30 29 28 29 30 31 31 32 31 32
30 30 31 29 33 34 27 27 30 29 27 23 23 25 25 24 21 20 17 15 18 21 23 24 28 36 41 44 50 50 47 48 47 45 42 40 39 38 38 37 36 35 33 32 30 27 27 28 28 29 30 32 33 33 34 33 32 31 30 29 28 27 28 29 30 30 32 33 33 33 33 35 35 33 33 33 30 29 29 29 29 30 31 32 32 32
45 41 32 24 26 30 26 27 30 28 25 23 25 27 25 23 20 18 16 14 15 18 21 18 17 26 29 29 37 39 40 42 40 44 46 42 41 41 40 39 38 37 35 34 32 29 29 29 29 30 30 32 32 33 34 34 33 33 32 30 29 28 28 28 28 28 30 33 33 33 34 36 36 35 35 33 30 29 30 30 30 30 31 32 33 33
46 49 45 36 27 26 24 26 31 28 24 23 23 25 25 25 22 19 17 15 16 17 16 12 12 19 22 22 27 25 26 29 25 33 43 41 40 40 40 40 38 39 37 36 34 32 31 30 30 30 31 32 32 31 33 35 35 34 32 31 30 29 29 28 28 27 28 30 32 33 34 35 36 37 37 34 32 32 32 32 32 32 33 34 34 34
41 42 45 46 40 33 25 23 30 32 26 22 22 22 23 25 25 23 20 18 20 19 18 20 18 22 28 32 34 30 30 30 23 29 41 42 39 36 36 38 36 36 35 35 36 34 31 31 30 29 30 32 32 32 33 34 35 34 33 32 32 31 30 29 29 28 27 29 31 33 34 34 35 36 37 36 35 34 34 35 35 34 35 35 35 35
41 40 42 46 43 41 35 25 26 33 32 27 26 24 21 22 22 24 24 22 23 20 21 26 20 19 27 28 27 29 37 42 38 37 42 45 42 36 34 34 33 33 33 34 35 33 32 32 31 30 31 31 32 33 33 34 35 35 34 34 33 32 31 31 30 30 30 30 32 34 34 35 34 35 36 37 37 37 37 37 37 37 36 36 36 37
38 36 37 40 40 40 40 34 25 25 26 26 26 25 25 24 23 24 24 24 23 19 23 27 21 16 23 22 18 19 30 42 44 36 32 38 39 35 31 31 30 30 30 32 32 31 30 31 31 31 32 31 32 33 33 33 35 37 37 36 34 33 32 33 32 33 34 35 35 34 34 35 35 34 34 35 36 38 39 39 38 39 38 38 38 38
39 33 30 35 36 32 33 39 38 31 27 27 26 26 24 23 25 25 25 27 20 15 29 37 28 19 19 21 17 18 23 27 27 21 19 28 32 28 25 24 24 24 26 29 28 26 27 28 29 30 31 31 31 32 31 33 35 37 38 37 36 34 34 35 35 36 37 38 38 36 34 34 34 35 34 32 33 35 38 40 40 40 40 40 40 39
36 30 28 32 32 29 29 37 45 45 42 37 31 28 20 12 18 19 22 27 14 9 29 42 34 25 22 21 13 12 17 14 16 21 22 27 30 26 22 19 20 21 23 26 26 25 25 26 27 28 30 31 30 30 30 33 35 36 37 37 37 36 35 36 36 36 36 36 37 36 35 35 34 35 34 32 32 34 36 39 41 42 42 42 41 41
35 32 30 29 30 33 34 36 38 38 39 36 31 30 17 5 8 10 10 13 9 12 24 27 24 24 29 37 29 22 27 28 33 38 35 33 32 29 23 18 19 20 20 23 25 25 24 24 25 27 28 30 30 29 30 32 33 33 34 35 36 35 34 35 35 34 33 32 33 33 35 36 36 36 36 35 34 34 35 37 40 43 43 44 43 43
32 30 31 30 30 35 37 37 36 33 35 36 36 35 21 6 4 6 6 4 6 19 26 20 16 15 22 40 42 38 40 38 39 36 27 23 21 19 16 15 17 17 16 18 21 22 22 20 22 23 25 27 28 29 29 30 31 31 31 32 33 33 33 36 36 36 35 33 32 33 35 36 38 39 40 39 39 37 37 37 39 42 43 45 45 45
27 19 29 35 32 35 37 37 37 36 36 36 38 37 29 20 10 3 3 2 1 10 20 21 13 9 17 31 30 25 24 20 18 16 12 12 12 11 13 16 16 13 13 17 18 18 17 16 17 19 21 23 24 26 27 26 27 27 27 27 27 26 26 29 31 32 33 34 35 35 36 37 39 41 42 42 42 41 41 40 40 41 42 44 45 46
26 16 25 36 34 31 32 32 35 34 31 30 34 34 32 35 26 8 6 7 5 6 7 14 12 11 24 35 29 21 18 17 20 22 24 26 22 19 19 17 14 9 9 13 16 16 14 13 12 12 15 17 19 21 23 24 24 25 26 26 24 22 22 25 26 28 29 31 33 34 35 36 38 40 43 43 43 43 43 43 43 43 42 42 44 46
24 14 19 30 32 29 26 27 32 31 26 25 30 35 35 38 32 17 11 13 11 7 6 10 12 15 26 34 35 33 30 31 34 35 33 30 25 22 20 15 12 8 9 11 13 14 13 11 9 9 11 13 14 16 19 23 25 27 29 29 28 27 27 28 29 30 30 31 33 34 36 37 37 39 41 43 44 44 45 44 45 45 43 42 42 44
24 15 16 25 28 29 24 20 25 30 27 23 26 33 32 26 26 21 10 6 6 5 5 10 14 16 19 19 19 20 23 25 25 23 19 19 20 20 17 15 14 13 14 12 11 13 11 10 10 11 13 13 13 15 17 22 26 28 30 30 30 29 27 28 29 30 30 31 33 34 35 37 37 38 39 41 43 44 45 44 44 44 43 42 41 42
26 14 14 21 21 25 26 21 23 30 31 26 23 27 25 15 15 21 13 3 4 5 4 8 13 16 20 21 12 5 8 12 13 15 16 18 20 21 18 18 19 20 20 15 13 14 14 15 16 16 16 14 14 16 18 21 24 26 28 28 29 28 27 27 28 29 28 28 30 31 32 33 34 36 37 38 40 41 42 42 41 42 41 41 42 43
27 16 11 18 19 21 28 28 28 31 31 31 26 23 24 18 12 17 19 10 5 4 4 6 9 12 23 33 27 20 21 22 20 21 25 25 24 23 22 24 24 23 21 17 15 17 18 20 20 19 17 14 13 16 19 20 21 23 25 26 26 26 26 26 26 27 27 27 27 27 28 28 29 30 32 33 36 37 38 38 38 39 39 40 42 43
27 22 13 16 21 23 30 33 33 33 32 32 31 26 26 27 18 13 19 20 12 5 3 5 6 15 30 32 23 23 27 27 22 22 28 29 27 26 25 25 25 23 20 17 16 16 17 19 19 18 16 14 13 16 18 18 17 18 20 22 23 24 23 22 23 26 28 28 28 27 27 27 27 28 29 30 32 34 35 36 36 37 38 40 41 42
25 25 17 19 26 28 32 35 33 31 31 30 34 35 33 34 28 13 10 21 24 16 10 7 5 23 44 35 19 18 19 20 20 22 30 32 29 29 28 26 25 22 21 20 17 17 18 20 19 17 17 15 14 16 17 17 16 15 16 17 19 21 22 22 23 25 27 28 29 29 29 29 30 30 30 31 32 32 33 33 34 36 37 39 40 41
24 23 19 19 25 27 27 30 30 28 28 28 31 34 32 32 32 22 10 14 25 25 21 13 7 28 50 41 29 28 25 26 27 26 33 35 31 31 30 29 27 24 23 22 21 23 24 23 21 19 19 18 18 18 18 18 19 18 17 16 16 18 20 23 25 26 26 27 27 28 29 30 31 31 31 31 31 32 32 32 33 34 36 37 38 39
26 23 21 16 17 23 23 25 28 27 26 29 31 33 32 31 35 34 22 13 14 21 22 12 7 30 47 38 32 33 29 32 32 30 34 33 31 32 30 29 29 26 25 25 26 28 28 26 25 24 22 21 21 21 20 20 22 22 21 19 19 20 20 23 26 26 26 25 24 25 26 27 27 28 28 28 29 30 30 31 32 33 34 35 37 38
29 23 24 18 11 13 16 16 20 25 28 32 35 35 35 34 36 35 32 23 13 15 22 14 10 29 37 26 25 28 26 28 30 32 35 32 30 32 30 30 31 29 29 29 30 31 31 30 29 29 27 23 22 24 23 22 23 25 26 24 24 24 23 24 26 27 27 25 23 22 22 23 23 23 24 25 26 27 28 30 30 31 32 33 34 35
30 23 25 22 13 10 12 12 19 27 30 33 34 35 36 37 35 33 33 30 18 16 24 19 15 30 37 29 30 33 31 32 33 33 35 36 35 34 33 33 33 32 33 34 34 34 34 34 33 33 31 26 24 26 27 26 26 26 29 29 28 28 26 26 27 28 29 27 23 21 20 20 20 20 21 22 24 25 26 28 29 29 30 30 31 33
30 25 25 24 20 16 13 14 21 26 25 27 32 35 36 35 35 34 31 30 27 23 25 26 24 32 41 40 38 39 38 39 39 36 34 35 36 36 38 39 37 37 38 39 39 38 37 36 36 36 36 33 31 31 29 29 29 28 30 31 32 31 29 29 30 30 30 28 24 21 20 19 19 20 21 22 23 25 25 26 27 29 30 30 31 31
30 28 28 27 26 23 16 11 16 20 20 22 27 31 34 33 33 34 32 34 34 25 20 29 31 32 42 46 41 39 40 41 42 41 39 36 35 38 43 46 44 43 44 42 42 41 40 39 39 40 41 41 40 37 34 33 33 32 31 32 34 34 33 33 33 32 32 30 26 23 21 21 21 22 24 25 26 27 28 28 29 29 30 31 31 32
32 32 33 33 33 32 26 16 14 16 17 18 19 20 24 28 29 32 33 35 37 30 27 33 34 33 42 47 43 41 41 42 42 44 44 44 44 46 49 50 47 46 46 46 44 44 45 45 45 45 46 47 46 43 40 38 36 36 35 34 33 35 37 37 36 35 35 33 29 26 26 25 24 25 25 26 28 29 30 31 31 32 33 33 33 33
31 31 32 32 31 34 36 29 23 21 20 22 24 21 17 19 22 25 27 29 32 33 34 35 36 39 44 46 47 45 43 44 46 46 46 47 49 50 52 53 52 50 50 50 49 49 49 50 51 50 49 51 50 45 42 42 41 40 40 38 35 35 36 38 38 38 38 36 33 31 31 30 28 28 27 27 28 29 31 33 34 34 34 35 35 36
28 24 24 23 22 25 31 30 26 25 22 23 29 28 22 18 20 24 29 31 32 35 36 34 36 41 43 44 48 49 46 46 48 47 48 49 49 51 52 54 56 56 55 54 53 52 52 51 52 51 50 52 53 48 43 44 45 43 43 41 39 36 35 36 38 40 40 40 38 36 35 34 33 31 30 29 28 29 31 32 34 36 36 36 37 37
26 21 16 16 15 18 24 24 23 25 24 24 28 30 29 29 31 36 40 41 42 40 36 31 35 42 44 43 45 49 50 50 50 51 52 52 52 52 53 54 54 55 56 56 55 54 53 53 53 52 51 51 54 52 47 45 46 46 45 43 41 40 37 36 38 40 41 41 41 41 39 38 37 35 33 32 31 31 31 32 34 36 36 37 37 38
30 27 23 18 15 20 28 26 23 23 19 20 28 35 38 40 42 44 45 45 45 43 38 36 42 47 45 41 43 48 52 54 53 54 53 53 52 52 53 54 53 52 52 54 56 55 54 55 55 55 55 53 53 55 53 49 47 45 45 43 42 42 40 38 37 39 41 42 43 44 44 42 41 39 37 35 34 34 34 33 33 33 35 37 38 39
33 31 30 23 16 20 27 24 20 15 12 20 33 39 40 41 42 44 46 47 47 47 47 48 50 49 43 41 44 49 54 56 55 53 52 51 50 50 51 52 51 51 51 52 55 56 55 55 55 56 56 54 53 54 54 52 49 46 44 43 42 42 42 41 40 39 40 42 42 45 46 46 46 44 42 40 39 39 38 36 35 33 34 36 39 40
33 34 31 23 17 18 19 17 12 9 15 29 38 37 35 36 37 39 43 46 46 46 47 47 47 46 43 44 45 47 50 52 52 51 50 49 49 50 51 52 51 51 51 50 51 53 54 55 54 54 54 53 51 51 51 50 48 46 45 42 42 42 42 43 43 41 41 41 42 44 47 49 49 49 48 47 45 45 45 43 43 41 39 40 43 45
28 32 29 22 18 17 16 14 10 6 15 29 35 36 38 39 39 39 40 43 44 42 41 41 42 42 42 42 43 43 45 47 49 51 51 51 51 48 48 51 51 50 49 48 49 50 51 51 52 52 52 51 49 46 45 45 45 45 44 41 41 43 43 44 45 45 43 42 43 44 47 50 52 52 52 52 51 51 51 50 50 50 48 47 48 48
23 27 28 23 20 19 17 17 16 11 15 29 38 41 44 45 44 40 38 40 41 38 37 40 40 41 42 42 42 42 42 44 48 50 51 50 47 44 45 49 50 47 46 45 46 47 47 47 49 50 50 50 47 43 42 42 42 43 43 40 39 41 44 46 47 47 46 45 44 44 46 50 54 55 56 55 55 55 54 53 53 53 53 53 53 51
25 25 26 22 20 20 16 15 14 8 16 36 45 42 41 40 37 33 30 33 38 39 40 43 43 43 43 42 41 40 39 40 43 46 48 47 45 45 47 46 46 46 45 44 44 44 44 45 46 46 47 48 47 46 46 46 44 41 41 40 39 39 42 44 46 48 49 47 45 44 44 47 52 56 59 60 59 58 56 55 55 55 56 57 57 55
27 26 25 22 20 21 18 15 12 11 25 46 45 33 31 32 27 21 18 26 39 44 44 44 42 41 40 38 37 36 35 37 40 41 43 44 45 48 48 44 44 46 46 45 45 44 44 44 44 44 45 46 47 47 48 48 45 42 39 38 37 37 38 41 43 45 47 47 46 44 44 46 48 51 55 60 62 62 61 59 58 58 58 58 59 57
29 28 26 23 23 25 22 18 16 19 37 53 44 32 34 35 24 11 11 26 44 44 40 39 35 33 34 34 33 32 32 36 38 39 42 43 44 46 47 45 46 47 46 46 47 47 46 45 43 43 43 43 43 43 44 43 42 40 38 37 36 36 37 39 41 43 45 46 47 46 46 47 48 49 50 53 57 60 62 62 61 60 59 59 59 58
32 31 29 27 26 25 24 22 20 26 44 54 45 38 38 29 16 14 22 38 45 41 39 39 33 30 34 34 32 31 31 34 36 39 41 42 41 43 44 45 46 49 49 48 46 46 45 43 40 39 38 38 38 37 38 38 37 36 36 37 37 38 38 39 41 43 44 45 47 47 47 47 47 48 49 49 50 52 55 58 59 60 60 59 60 59
35 31 27 29 28 25 27 25 17 26 47 53 43 41 40 27 20 28 38 41 39 37 40 40 35 34 36 34 32 32 33 35 37 39 40 40 41 43 44 45 48 49 48 43 38 37 37 35 32 31 31 31 32 33 34 34 34 34 35 35 37 38 39 39 41 42 43 44 45 45 46 46 46 46 47 47 47 48 49 50 51 53 55 56 57 58
38 30 26 32 32 25 23 20 13 24 45 46 35 35 37 31 29 34 35 32 32 34 35 34 34 34 33 33 34 33 33 34 35 36 38 40 42 44 45 47 49 47 43 36 31 30 30 29 27 26 27 28 30 31 33 34 33 33 33 33 34 35 36 37 38 39 40 41 42 43 43 44 44 45 46 46 46 46 46 46 46 46 47 49 51 52
36 35 31 34 32 24 23 25 27 36 44 39 34 34 33 32 33 32 28 28 30 30 29 30 32 33 32 33 34 32 32 34 34 36 37 39 41 44 45 46 45 43 38 33 30 30 30 30 29 28 29 30 31 33 34 34 34 34 33 33 34 35 36 37 37 38 39 39 41 42 43 43 44 44 45 46 47 47 46 46 46 45 44 44 44 45
35 37 34 33 33 30 30 34 38 40 37 36 38 38 35 34 35 32 28 28 26 25 27 29 30 32 33 33 33 34 35 35 35 36 36 37 38 40 42 42 41 39 36 33 30 29 30 32 33 32 32 32 31 30 30 31 33 34 33 33 33 34 36 37 38 39 40 39 40 41 42 43 44 45 46 46 47 48 48 47 47 46 45 43 42 42
34 35 33 33 35 35 37 41 41 40 40 41 41 39 35 34 34 32 30 27 25 25 27 29 31 32 31 30 32 34 34 33 33 32 31 30 31 32 34 36 35 35 35 35 34 32 32 32 33 33 31 30 28 26 25 26 29 31 31 30 30 31 33 34 36 37 38 39 39 39 40 41 43 44 46 46 46 47 48 48 47 47 45 44 43 42
33 32 31 33 33 33 37 42 43 42 42 41 39 38 35 32 31 31 29 28 28 30 31 33 36 35 30 27 28 29 29 29 30 28 25 25 26 26 27 29 29 29 29 31 31 31 29 28 28 26 25 24 23 23 23 24 25 27 28 30 29 30 30 32 34 35 36 36 37 37 38 39 40 42 43 44 44 45 45 46 46 46 46 45 45 44
35 33 32 35 36 36 39 43 43 41 38 35 32 30 27 26 28 30 31 32 34 36 37 38 38 36 31 27 25 27 28 27 26 24 24 24 25 26 26 27 28 28 27 26 27 27 26 25 25 24 22 21 21 22 23 23 23 25 27 29 29 28 29 30 31 33 33 34 34 35 35 36 37 39 40 42 43 43 43 43 44 44 45 45 45 46
35 35 35 36 36 38 40 41 41 39 35 31 28 26 23 23 25 28 32 34 34 34 35 35 33 30 27 24 24 28 29 26 23 24 25 25 26 27 27 28 29 29 28 27 26 26 26 25 25 25 23 22 22 22 21 21 22 23 25 27 28 28 28 28 29 30 31 31 31 31 31 32 33 35 37 39 41 42 42 41 41 42 43 44 45 46
36 37 37 35 35 38 39 38 37 36 34 32 31 30 28 27 26 27 31 33 32 32 33 31 29 27 26 26 26 28 28 27 27 28 30 31 30 29 29 30 31 31 30 28 27 27 28 28 27 27 26 24 24 24 24 23 23 24 26 28 29 30 30 30 30 30 30 31 31 31 30 30 29 30 32 34 37 40 42 42 42 42 42 43 45 46
36 35 36 35 35 35 32 29 29 31 31 30 31 31 31 31 31 32 33 34 34 34 34 33 32 32 32 32 32 32 33 33 32 32 34 35 35 34 33 33 33 34 33 32 31 31 31 31 31 30 29 29 29 29 29 28 28 29 31 33 34 34 35 35 35 34 33 33 33 33 33 32 31 30 30 31 33 35 38 41 42 42 42 42 44 45
Wind_Direction
214 209 211 214 219 223 223 220 219 219 220 222 220 219 220 225 233 232 235 240 241 243 245 246 248 251 253 254 255 256 257 261 264 263 259 260 265 265 265 265 268 271 272 274 275 273 273 273 273 272 271 273 275 275 277 278 276 275 274 271 268 266 265 265 266 267 268 268 268 266 265 266 267 267 268 266 263 258 255 252 251 252 253 254 255 255
215 212 215 218 221 225 226 223 222 219 220 226 220 220 224 226 233 233 232 239 237 238 243 248 253 254 256 255 256 258 258 258 261 263 262 260 264 267 268 267 269 272 272 272 274 273 271 272 272 273 274 275 277 279 280 279 278 276 274 272 271 269 267 266 267 266 267 268 268 266 265 264 263 263 263 263 261 258 255 252 251 251 251 252 253 253
205 210 214 219 221 224 227 225 225 222 222 228 220 222 229 227 232 231 231 240 243 245 249 254 257 256 258 260 259 259 261 261 260 261 262 262 264 266 268 271 272 273 272 272 272 273 273 271 270 269 271 274 276 278 278 279 279 277 276 275 274 273 271 269 268 267 266 266 265 265 264 262 261 260 260 260 259 258 255 253 252 252 252 252 252 252
199 206 210 214 216 217 221 222 221 221 222 223 216 219 229 229 230 234 239 248 251 255 257 257 262 262 262 263 262 261 262 263 263 262 262 263 264 265 266 268 271 272 273 274 274 274 276 275 271 268 268 271 273 274 276 278 278 277 276 275 274 273 272 269 266 266 266 264 262 260 260 261 260 259 259 258 258 259 259 258 258 258 258 257 256 255
226 216 209 208 211 212 214 215 213 213 217 219 215 218 227 233 233 237 245 252 255 263 266 266 271 270 268 268 267 266 267 268 267 265 263 262 263 265 265 265 267 271 273 275 277 277 277 277 274 270 268 269 272 273 274 275 275 273 272 271 273 273 271 269 267 265 265 264 262 259 258 259 260 259 258 258 259 261 262 263 264 264 263 262 260 258
239 238 228 217 211 212 215 215 210 209 217 222 223 224 228 235 238 238 242 252 262 268 271 271 273 272 268 268 271 273 273 272 270 267 264 262 262 262 264 265 267 269 271 273 276 278 278 278 276 273 271 271 271 272 272 272 271 269 268 270 271 272 272 271 270 268 266 266 265 263 260 261 263 262 260 259 260 261 261 261 261 262 262 262 261 260
241 242 239 234 224 217 218 220 217 215 223 229 233 235 235 237 240 240 236 241 255 260 266 260 256 276 276 262 264 268 270 269 264 266 267 263 261 263 264 266 267 269 271 273 272 273 275 275 275 273 273 272 272 272 270 269 269 268 267 269 271 272 272 272 272 271 270 270 271 270 268 266 266 265 264 261 259 258 258 258 258 258 259 260 261 260
237 236 238 239 235 230 224 223 224 220 222 227 232 235 236 236 236 241 238 238 250 257 264 261 259 275 274 266 264 261 261 263 256 262 271 269 264 263 266 268 268 270 273 274 272 270 271 272 272 271 270 272 272 272 270 266 265 266 266 267 269 270 271 272 272 273 273 274 275 276 274 272 271 269 267 263 260 257 257 257 257 257 258 259 260 260
236 231 233 235 230 228 227 227 224 220 221 226 230 232 233 235 234 237 240 239 246 253 255 254 250 263 268 268 270 266 263 263 262 264 271 274 271 267 269 272 271 271 271 272 271 270 271 271 272 270 268 269 270 270 268 263 261 263 264 265 267 268 268 269 270 272 275 277 277 277 276 276 276 274 271 266 262 259 257 257 257 257 257 258 259 260
236 234 235 233 226 228 232 233 226 216 219 225 235 240 238 241 239 238 241 240 243 247 247 245 233 244 269 268 259 260 264 267 269 269 267 270 275 275 276 277 274 273 271 269 270 269 270 270 270 269 267 267 268 268 267 264 260 260 261 263 265 266 267 267 268 269 272 275 275 275 276 276 276 276 274 271 267 263 260 259 258 258 258 258 259 260
233 234 230 228 232 239 236 233 233 231 236 245 253 254 246 243 241 241 242 239 240 242 244 246 235 230 266 272 252 244 256 269 269 258 255 271 282 284 280 279 275 272 267 264 263 262 264 266 266 266 265 265 267 267 266 264 260 258 259 262 265 267 267 267 268 269 271 273 273 273 273 273 274 275 275 274 272 268 264 262 261 260 260 259 259 259
226 227 219 220 229 235 228 229 235 240 245 253 256 252 252 251 239 237 234 229 228 236 246 249 240 227 247 260 251 238 242 250 252 250 265 283 289 286 279 281 276 266 260 256 254 255 258 261 262 262 261 261 263 263 263 263 263 261 261 263 265 267 268 269 270 271 272 273 273 272 271 270 271 271 273 275 275 272 268 265 262 261 261 260 260 260
218 223 222 221 225 227 225 223 229 237 240 241 238 235 239 262 240 227 215 219 219 230 242 248 236 225 244 254 256 255 251 254 264 271 280 283 282 281 278 277 271 264 259 254 250 251 253 256 259 260 260 261 261 262 263 265 267 267 266 265 266 267 268 269 271 273 274 274 274 273 271 270 269 268 269 272 274 274 272 268 264 261 261 261 261 261
209 222 222 217 219 221 221 217 216 221 224 223 223 222 214 204 248 231 214 222 232 233 236 240 229 215 245 261 263 262 263 267 271 276 283 281 279 277 266 261 263 262 258 254 252 252 255 258 260 261 264 265 264 263 262 265 270 272 271 270 270 269 269 269 270 271 272 272 273 272 270 268 267 267 267 269 272 274 274 272 267 262 260 260 261 262
194 207 211 209 214 215 216 218 215 216 219 220 222 220 213 214 225 241 235 227 295 248 236 229 221 187 229 255 266 267 266 266 265 267 272 279 283 272 260 260 262 261 258 255 255 255 255 257 259 263 267 269 269 266 262 264 269 271 271 270 269 269 270 270 270 270 269 269 269 269 268 266 265 265 266 268 269 271 272 273 270 265 260 259 260 261
193 199 211 213 218 220 217 216 215 217 221 223 220 217 220 226 227 237 271 266 300 315 249 220 208 202 233 250 260 261 257 252 256 265 272 279 282 272 265 263 253 254 274 264 250 244 244 247 255 268 274 275 275 271 265 264 265 264 263 263 263 266 270 272 272 270 268 267 267 268 269 267 265 264 264 266 268 269 270 271 271 268 263 259 258 259
191 198 210 209 214 220 218 215 215 214 216 218 213 212 222 229 228 230 256 265 270 290 276 242 231 231 246 257 257 254 258 262 265 271 275 276 278 268 260 253 234 240 297 286 246 230 229 237 258 282 291 288 281 275 267 262 260 259 260 261 263 269 274 274 273 272 271 270 269 270 270 269 267 265 264 264 266 267 268 269 269 268 264 259 258 258
185 186 201 204 211 217 214 217 221 215 214 212 208 213 219 225 225 223 238 269 248 252 268 256 251 246 247 261 268 258 256 263 269 276 270 260 272 278 261 240 234 254 290 293 252 232 234 250 274 290 298 297 287 277 269 263 261 261 263 265 268 272 275 275 274 274 274 274 273 272 270 269 267 266 265 265 264 265 266 267 267 266 263 259 258 258
183 169 192 203 213 215 203 203 212 211 215 216 213 215 212 210 215 211 212 231 223 241 264 243 247 248 242 250 268 264 241 256 273 283 274 263 279 289 269 251 259 276 291 290 258 245 253 266 277 284 289 293 290 282 273 268 266 267 268 270 272 274 273 273 273 273 274 275 276 276 274 271 268 266 266 265 264 264 266 267 266 264 261 260 259 259
190 178 187 193 199 205 195 196 203 204 210 217 221 221 214 214 211 202 208 213 209 233 254 247 243 239 248 256 262 262 265 271 271 273 278 281 286 288 278 273 276 283 291 286 265 253 257 264 272 278 281 285 292 287 280 277 275 273 271 269 270 272 271 271 269 267 268 270 272 274 274 273 271 269 268 266 265 265 266 266 265 264 262 261 261 261
195 196 194 182 185 194 193 198 205 204 202 206 213 215 214 217 214 210 219 217 214 221 230 257 257 245 253 261 264 265 271 273 267 267 275 281 284 284 281 279 280 283 286 281 270 261 261 265 271 276 275 278 291 290 285 283 278 276 274 269 266 266 267 267 264 262 262 265 267 269 272 273 273 272 270 269 269 268 268 268 267 266 265 264 264 264
196 200 192 174 180 193 201 207 213 211 207 209 211 211 213 214 206 204 223 216 216 217 212 222 263 260 258 259 263 264 267 269 267 271 276 278 279 280 281 280 280 281 281 276 270 271 275 274 274 276 273 275 287 287 283 278 270 266 269 269 268 266 265 263 261 262 264 266 268 270 273 275 275 274 273 271 271 271 271 271 270 269 267 266 266 266
198 196 189 179 187 199 206 211 213 213 216 221 219 216 218 216 207 206 211 208 211 215 224 235 260 265 262 261 261 262 264 269 271 272 275 276 275 277 280 280 280 279 279 275 272 278 284 281 278 280 279 280 285 286 282 274 264 259 259 264 269 270 270 268 265 265 268 270 272 273 273 273 273 274 273 272 272 272 273 273 272 270 268 267 267 267
195 190 186 181 189 200 207 214 217 217 218 221 223 222 221 220 218 218 218 215 209 209 219 225 239 261 266 266 263 263 265 269 271 271 274 277 278 278 278 278 279 278 275 272 273 279 283 282 284 286 285 287 288 286 283 275 267 262 259 262 268 269 271 272 269 267 267 268 270 271 271 271 271 271 271 272 272 271 272 271 270 270 269 269 268 268
199 190 185 180 175 194 205 214 218 219 220 222 225 225 223 225 227 226 225 232 238 219 218 216 226 252 263 269 265 264 266 268 273 278 280 280 278 276 276 277 278 276 272 271 273 278 281 284 289 289 286 288 291 289 284 276 271 266 263 263 266 269 269 268 268 266 264 264 264 266 268 269 269 270 270 271 271 270 270 269 269 270 270 271 271 271
201 190 188 193 194 196 203 209 213 215 218 223 226 227 228 229 227 226 227 230 236 232 226 225 235 250 259 265 263 264 268 271 277 283 287 285 280 278 277 276 275 274 276 278 277 279 282 286 290 290 285 285 289 292 289 281 274 268 265 264 265 269 270 267 264 262 261 260 258 259 262 263 264 265 267 269 270 271 270 270 270 270 271 272 273 274
201 196 197 203 209 213 213 217 221 219 215 221 228 229 230 232 229 228 228 228 234 238 235 236 243 255 262 263 263 265 269 273 276 278 283 285 283 283 282 278 277 279 283 285 284 283 283 284 287 289 286 284 286 290 291 288 282 274 270 267 265 267 270 269 265 260 256 254 251 251 252 252 252 257 264 269 272 274 274 274 274 273 272 272 271 273
207 208 211 212 216 222 222 224 231 226 217 222 231 232 231 231 230 228 229 234 238 240 244 246 248 256 262 262 262 266 270 274 275 274 277 280 281 283 283 281 282 285 289 289 289 289 286 284 285 287 287 286 287 290 291 291 288 283 278 275 270 267 268 270 269 262 255 248 244 243 241 240 246 255 263 269 272 275 277 277 278 277 276 275 274 274
214 216 220 222 224 227 226 225 231 226 217 218 225 231 233 233 232 232 234 239 241 243 249 252 252 254 259 263 265 266 269 272 272 272 274 278 282 284 284 283 282 284 287 289 290 290 289 289 288 288 288 288 289 293 294 291 289 286 282 280 276 270 266 268 269 265 257 247 241 238 234 235 243 252 259 266 270 274 276 277 278 279 279 278 278 277
215 220 224 225 230 234 233 232 235 235 234 233 232 232 233 236 241 243 245 248 250 251 254 257 259 259 259 263 267 266 266 268 270 272 274 278 284 286 287 289 289 287 287 290 292 291 291 291 291 291 291 290 290 292 293 291 287 283 280 280 279 274 267 265 266 267 262 251 242 236 233 234 240 245 251 258 264 270 273 275 277 278 279 280 279 278
211 219 224 223 229 239 238 236 238 240 242 245 245 245 245 244 248 251 253 255 254 255 257 259 261 263 263 264 267 268 269 270 271 271 271 275 280 283 286 290 293 294 294 295 295 293 292 292 291 292 293 292 291 290 290 287 284 281 278 278 279 277 271 265 264 266 265 258 248 240 236 237 240 243 246 251 257 263 268 272 274 276 278 279 280 280
211 212 219 222 225 240 242 241 245 248 251 254 253 256 256 253 254 255 256 256 256 257 258 255 255 261 264 264 266 269 272 273 273 273 273 274 276 279 283 286 289 294 296 296 295 293 293 294 294 293 292 291 291 291 288 285 282 281 280 279 279 278 273 267 264 264 266 263 255 247 242 241 242 244 246 249 253 257 261 267 271 275 277 279 280 279
217 216 218 216 219 238 243 245 251 254 252 249 250 255 257 254 255 257 257 257 258 257 255 251 254 261 263 264 267 269 270 271 272 274 276 277 278 280 282 280 282 287 292 293 293 294 295 295 295 293 291 290 290 290 290 287 283 281 280 279 278 277 274 268 264 264 266 266 262 256 250 246 246 247 248 251 253 256 259 263 268 273 277 279 280 279
218 217 218 215 218 239 245 246 247 241 232 242 251 256 257 255 254 254 254 256 257 257 256 257 260 263 264 264 266 268 270 273 275 277 279 281 282 282 279 277 280 284 287 289 291 294 295 294 293 292 291 291 289 288 289 290 287 283 279 275 274 274 273 269 265 263 264 266 266 264 258 253 251 251 252 254 256 259 261 263 267 271 275 277 279 278
226 222 220 217 217 233 242 239 231 227 239 248 253 254 255 256 255 254 255 256 256 257 258 261 263 265 267 267 268 271 274 279 282 284 284 284 283 282 280 280 282 285 287 288 290 290 290 290 291 292 292 292 291 289 288 288 288 286 281 276 270 268 267 267 264 263 263 264 265 266 264 261 257 255 256 257 259 262 264 266 268 270 272 274 276 277
230 226 220 214 214 226 231 222 216 245 253 250 251 251 250 252 252 250 251 254 255 257 259 262 266 270 271 271 272 274 277 281 284 283 283 285 285 284 284 284 284 285 285 285 285 284 284 285 287 288 289 290 291 291 289 286 285 284 282 279 272 266 263 262 263 264 264 265 265 265 264 263 261 260 259 259 260 262 264 265 266 267 268 270 272 275
220 224 220 213 212 220 225 229 237 258 261 253 252 252 252 252 252 251 252 258 264 267 268 270 271 272 273 274 275 278 280 283 284 283 284 287 288 287 288 287 286 285 283 280 279 278 279 280 281 282 284 286 289 291 290 287 285 283 281 279 275 269 265 263 263 265 267 269 269 267 266 264 262 261 260 260 261 261 262 263 264 266 267 268 270 272
212 218 220 215 213 219 228 242 244 240 253 256 256 258 258 257 259 261 260 265 272 273 271 272 273 274 278 280 282 285 285 282 284 286 286 287 288 290 290 288 285 285 284 282 279 276 275 275 276 279 281 284 287 289 289 290 289 286 283 282 279 275 271 268 266 266 268 270 271 270 270 268 266 263 262 261 261 261 262 263 264 266 267 269 270 271
212 214 218 218 219 220 223 235 235 229 250 256 258 259 260 261 267 269 261 267 273 272 271 275 277 279 282 283 286 290 284 277 281 286 285 285 288 289 287 285 286 287 287 287 286 283 280 277 276 277 280 283 285 287 288 289 290 289 285 283 280 276 272 271 270 268 268 270 270 270 270 271 270 269 266 264 263 263 264 265 265 266 266 267 269 269
213 214 214 215 221 224 225 235 240 242 254 259 260 260 263 268 272 255 236 266 274 275 278 282 281 280 283 286 288 289 280 274 277 280 280 281 285 287 286 287 289 289 288 289 289 288 287 283 279 279 281 284 286 286 287 287 288 288 286 282 278 274 269 268 269 270 270 271 272 272 273 272 272 272 272 270 268 267 267 267 267 267 266 266 266 268
210 212 212 215 221 225 226 234 243 250 257 262 264 264 266 269 257 234 252 272 278 281 285 284 281 280 283 284 282 278 272 270 272 275 277 279 281 284 286 288 289 289 290 291 291 290 290 289 286 284 285 287 289 290 290 289 288 287 285 282 280 277 273 271 269 270 271 272 272 274 276 277 277 277 277 277 275 273 272 271 272 272 271 270 270 270
207 209 212 218 221 222 225 231 246 261 261 261 263 267 268 261 246 257 271 278 283 285 285 284 283 282 281 280 277 273 271 271 273 275 278 278 278 280 282 285 287 288 289 290 291 290 289 288 287 286 286 286 287 289 289 288 287 286 286 284 283 281 280 278 276 274 273 273 274 275 277 280 282 282 283 284 284 282 280 279 278 277 276 276 275 275
210 206 208 217 219 218 220 219 226 252 257 261 268 271 267 261 262 272 279 281 281 282 281 282 283 282 280 279 278 275 274 274 274 275 275 275 276 277 278 281 284 285 285 284 283 282 282 279 277 277 279 280 281 282 283 282 282 283 283 283 283 283 283 282 281 281 280 278 278 278 279 281 283 285 286 287 288 289 288 287 286 283 281 280 279 277
214 210 210 216 215 206 204 213 233 253 261 271 279 275 270 274 279 284 286 285 283 282 279 278 279 281 282 280 278 277 275 273 272 271 270 271 272 274 276 278 280 281 280 277 273 271 271 271 269 270 273 273 272 273 274 276 277 278 279 281 282 282 283 284 284 284 284 283 283 282 282 283 284 286 287 289 290 290 290 290 289 288 286 284 282 280
224 226 227 228 229 230 233 242 257 267 270 273 275 275 276 281 283 285 288 288 286 281 276 274 275 279 280 277 276 275 273 270 268 266 265 264 265 269 273 275 276 276 275 272 269 266 264 265 267 269 268 265 264 266 269 273 275 277 280 283 284 284 284 285 285 285 285 285 285 285 284 285 285 285 287 288 290 291 291 290 289 288 287 286 284 282
239 242 241 241 243 250 256 259 262 265 265 267 270 271 272 274 277 281 284 282 277 272 270 271 275 278 278 275 274 271 268 265 263 263 263 263 263 264 268 271 273 275 274 272 269 266 266 267 269 270 269 266 264 264 268 274 278 281 283 286 287 287 288 288 288 288 288 288 288 288 288 287 286 286 286 288 289 291 291 290 289 287 286 285 283 281
247 246 244 245 245 247 254 259 260 261 264 267 267 267 268 272 275 276 274 270 268 268 269 272 277 280 279 277 274 271 267 264 262 262 266 268 268 268 270 273 276 278 278 277 275 273 273 274 275 276 277 276 273 271 271 275 279 282 284 286 287 287 288 289 290 291 291 292 293 293 292 292 290 289 288 288 288 290 291 291 290 288 286 284 282 280
253 250 246 248 249 248 253 260 264 265 266 267 266 269 275 276 272 269 266 265 265 267 269 271 273 274 275 274 272 271 269 266 264 267 273 275 276 276 275 276 279 281 283 284 285 285 284 285 287 288 288 288 287 285 283 283 283 282 282 282 284 285 286 288 291 293 295 296 296 296 296 296 295 293 291 290 288 288 290 291 291 290 288 285 283 280
255 253 251 252 253 254 256 260 262 263 265 266 267 272 277 273 266 262 262 262 264 267 270 270 269 269 270 271 270 271 272 271 270 274 277 279 279 278 275 275 278 279 280 282 283 284 285 287 287 287 285 283 282 280 280 279 278 278 278 279 281 283 285 288 291 294 297 300 301 301 300 299 299 297 295 293 290 288 287 289 291 293 292 289 286 283
252 253 255 253 251 253 257 260 260 259 261 264 267 269 269 266 261 259 261 265 269 273 274 272 269 268 271 273 273 272 273 274 275 276 276 276 278 279 277 275 274 274 276 277 276 276 278 279 279 278 277 276 275 274 274 273 272 275 278 280 282 284 286 287 290 292 295 298 300 303 304 303 303 303 301 299 296 291 288 288 290 293 295 294 292 289
251 252 254 253 251 253 258 260 259 260 261 263 265 266 265 264 263 264 266 268 270 272 273 271 268 268 271 273 274 275 275 276 276 275 274 274 277 278 279 277 276 275 276 276 275 275 275 275 276 276 276 275 275 275 275 275 275 278 280 281 283 285 286 287 288 289 291 293 295 299 301 303 304 306 307 307 305 301 296 292 291 292 294 295 296 295
Height
3108 3109 3108 3108 3110 3113 3117 3121 3125 3129 3132 3133 3134 3134 3135 3138 3139 3141 3142 3140 3141 3142 3141 3141 3141 3141 3142 3143 3144 3146 3145 3144 3143 3145 3147 3149 3149 3149 3150 3150 3151 3152 3153 3154 3155 3156 3156 3155 3155 3155 3155 3155 3154 3154 3154 3154 3154 3154 3154 3154 3154 3155 3156 3155 3155 3155 3156 3156 3157 3157 3157 3157 3157 3157 3157 3157 3157 3157 3158 3159 3159 3159 3159 3160 3160 3160
3104 3104 3104 3107 3111 3114 3118 3122 3126 3128 3128 3130 3132 3132 3134 3136 3137 3140 3140 3137 3139 3140 3139 3139 3139 3139 3139 3139 3141 3142 3141 3141 3141 3142 3144 3146 3147 3146 3147 3147 3148 3149 3150 3151 3152 3153 3153 3153 3153 3153 3153 3152 3152 3152 3152 3151 3151 3151 3151 3151 3151 3152 3152 3152 3152 3152 3152 3153 3154 3154 3154 3154 3154 3154 3154 3154 3155 3155 3155 3156 3156 3156 3156 3156 3157 3157
3098 3100 3103 3107 3111 3115 3118 3120 3123 3124 3125 3128 3130 3130 3132 3134 3136 3138 3137 3135 3137 3139 3138 3138 3136 3135 3136 3136 3137 3138 3137 3138 3139 3140 3141 3143 3144 3143 3144 3145 3145 3146 3147 3148 3149 3150 3151 3150 3151 3151 3150 3150 3150 3150 3149 3149 3149 3149 3149 3148 3148 3149 3149 3149 3149 3149 3149 3150 3151 3151 3151 3151 3151 3151 3152 3152 3152 3152 3153 3154 3154 3153 3154 3154 3154 3154
3095 3097 3101 3104 3108 3112 3115 3117 3120 3122 3124 3125 3126 3128 3130 3133 3136 3136 3135 3134 3136 3136 3136 3135 3132 3130 3131 3132 3131 3133 3134 3135 3136 3137 3139 3140 3140 3140 3142 3143 3142 3143 3144 3145 3146 3147 3148 3147 3147 3148 3148 3147 3147 3147 3146 3146 3146 3146 3146 3146 3146 3146 3146 3145 3146 3145 3146 3146 3147 3147 3147 3147 3147 3148 3148 3149 3149 3150 3151 3151 3151 3151 3151 3151 3151 3152
3095 3098 3101 3103 3106 3109 3112 3114 3116 3119 3121 3122 3124 3126 3129 3132 3134 3133 3134 3134 3134 3134 3133 3133 3130 3124 3125 3127 3126 3129 3131 3130 3132 3134 3135 3136 3137 3137 3138 3139 3139 3140 3141 3142 3143 3145 3145 3144 3144 3144 3145 3144 3144 3144 3143 3143 3143 3143 3143 3143 3143 3143 3143 3142 3143 3143 3143 3142 3143 3143 3144 3143 3143 3144 3145 3145 3147 3149 3149 3149 3149 3149 3149 3149 3149 3149
3093 3096 3101 3103 3105 3108 3110 3112 3114 3117 3119 3120 3122 3125 3128 3132 3132 3132 3133 3133 3133 3132 3131 3132 3128 3118 3120 3124 3123 3126 3127 3125 3127 3128 3129 3132 3133 3134 3135 3136 3137 3137 3138 3139 3140 3142 3141 3141 3141 3141 3141 3141 3141 3141 3140 3140 3139 3139 3139 3140 3140 3140 3140 3140 3140 3141 3140 3139 3139 3140 3140 3140 3140 3141 3141 3142 3145 3146 3146 3146 3146 3146 3145 3145 3145 3146
3089 3094 3098 3101 3104 3107 3109 3111 3113 3116 3119 3120 3122 3125 3127 3130 3130 3130 3132 3132 3131 3132 3130 3131 3128 3117 3115 3120 3121 3124 3124 3123 3124 3123 3123 3128 3130 3131 3132 3133 3134 3134 3135 3136 3136 3138 3138 3137 3137 3137 3137 3136 3137 3137 3136 3135 3136 3136 3136 3137 3137 3137 3137 3137 3137 3138 3138 3137 3136 3137 3137 3137 3137 3137 3138 3140 3141 3141 3142 3142 3142 3142 3142 3142 3142 3142
3085 3090 3093 3096 3101 3105 3107 3109 3112 3115 3118 3119 3120 3123 3125 3127 3128 3129 3130 3130 3129 3131 3129 3127 3129 3121 3110 3112 3117 3120 3121 3120 3121 3120 3119 3123 3126 3129 3130 3130 3132 3132 3132 3132 3132 3133 3134 3133 3134 3134 3133 3133 3133 3133 3132 3132 3132 3132 3133 3133 3134 3134 3134 3134 3134 3134 3135 3135 3134 3134 3134 3134 3134 3134 3135 3136 3137 3137 3137 3137 3138 3138 3138 3139 3139 3139
3081 3085 3087 3090 3095 3100 3105 3108 3110 3113 3115 3115 3117 3120 3123 3124 3126 3127 3127 3127 3128 3130 3126 3122 3128 3121 3105 3105 3113 3114 3115 3115 3116 3118 3118 3119 3122 3125 3127 3127 3128 3129 3130 3129 3128 3129 3129 3129 3130 3130 3130 3130 3129 3129 3129 3128 3128 3128 3129 3130 3130 3131 3131 3131 3131 3131 3131 3132 3131 3131 3130 3131 3131 3131 3131 3132 3132 3133 3133 3133 3134 3134 3134 3135 3135 3135
3079 3080 3086 3089 3091 3096 3103 3108 3109 3111 3111 3114 3117 3119 3121 3122 3123 3124 3124 3125 3127 3124 3119 3118 3125 3119 3102 3101 3110 3109 3108 3110 3112 3115 3116 3116 3119 3122 3124 3125 3125 3126 3126 3125 3125 3125 3126 3126 3126 3125 3125 3126 3125 3124 3124 3124 3125 3125 3125 3126 3127 3128 3128 3128 3128 3128 3128 3128 3127 3127 3127 3127 3127 3127 3128 3128 3128 3129 3129 3130 3130 3130 3131 3131 3131 3132
3077 3080 3085 3087 3089 3094 3101 3105 3107 3109 3110 3113 3116 3118 3119 3119 3120 3121 3120 3123 3124 3117 3111 3112 3119 3120 3105 3097 3104 3107 3105 3106 3109 3112 3113 3114 3118 3120 3121 3121 3122 3122 3122 3121 3121 3122 3122 3122 3122 3121 3121 3121 3121 3120 3120 3120 3120 3121 3121 3122 3123 3124 3125 3125 3125 3125 3125 3124 3123 3124 3124 3124 3124 3124 3124 3124 3124 3125 3125 3126 3126 3127 3127 3127 3127 3128
3077 3080 3081 3084 3088 3092 3097 3101 3103 3106 3109 3111 3114 3116 3118 3118 3117 3117 3117 3119 3116 3109 3106 3108 3114 3119 3107 3095 3100 3104 3104 3105 3106 3109 3112 3113 3115 3116 3118 3119 3119 3119 3118 3118 3119 3118 3119 3118 3118 3117 3117 3117 3116 3116 3117 3117 3117 3117 3118 3119 3119 3121 3121 3120 3121 3121 3121 3120 3120 3120 3120 3120 3121 3120 3120 3120 3120 3121 3120 3121 3122 3122 3123 3123 3123 3124
3076 3077 3079 3084 3086 3088 3092 3096 3100 3104 3106 3108 3110 3114 3117 3118 3116 3113 3111 3111 3108 3104 3103 3105 3109 3112 3104 3094 3098 3101 3101 3103 3103 3105 3109 3111 3112 3113 3115 3116 3115 3115 3115 3115 3115 3114 3115 3114 3114 3114 3113 3113 3113 3113 3114 3114 3114 3115 3115 3115 3116 3117 3117 3116 3116 3116 3116 3116 3116 3117 3116 3116 3117 3116 3116 3116 3116 3117 3117 3117 3117 3117 3118 3119 3119 3120
3073 3076 3078 3080 3082 3084 3087 3090 3095 3096 3098 3101 3103 3107 3112 3115 3114 3110 3106 3104 3104 3102 3101 3104 3107 3107 3101 3094 3093 3095 3097 3099 3100 3102 3106 3107 3108 3110 3112 3113 3112 3112 3112 3111 3111 3111 3111 3112 3112 3111 3111 3110 3110 3111 3111 3111 3112 3112 3112 3112 3112 3113 3112 3111 3111 3111 3112 3112 3112 3112 3112 3112 3112 3112 3112 3112 3112 3113 3113 3113 3112 3112 3113 3114 3115 3115
3068 3070 3070 3074 3077 3080 3082 3086 3090 3091 3093 3095 3098 3103 3105 3107 3108 3106 3104 3103 3103 3100 3100 3103 3103 3101 3097 3092 3089 3090 3093 3096 3098 3100 3102 3104 3106 3108 3109 3109 3110 3110 3109 3108 3108 3109 3109 3109 3109 3109 3108 3107 3107 3107 3108 3109 3109 3109 3109 3108 3108 3108 3108 3107 3107 3107 3107 3107 3107 3107 3107 3107 3107 3107 3107 3107 3108 3109 3109 3108 3108 3107 3108 3109 3110 3111
3066 3066 3067 3071 3075 3077 3080 3084 3087 3090 3093 3094 3097 3101 3101 3101 3104 3104 3103 3103 3103 3102 3100 3099 3097 3094 3092 3089 3088 3090 3091 3093 3096 3098 3100 3102 3104 3105 3106 3106 3107 3107 3106 3106 3106 3106 3106 3106 3106 3106 3105 3104 3104 3104 3105 3105 3105 3105 3104 3104 3104 3104 3104 3103 3103 3103 3103 3103 3103 3102 3103 3103 3103 3103 3103 3103 3104 3104 3104 3104 3103 3103 3104 3104 3105 3105
3063 3065 3067 3070 3073 3076 3079 3082 3084 3087 3090 3091 3094 3095 3095 3097 3101 3104 3103 3102 3104 3104 3099 3095 3093 3092 3091 3087 3086 3088 3088 3090 3093 3096 3098 3100 3100 3101 3102 3103 3104 3104 3104 3104 3104 3103 3103 3104 3104 3103 3103 3102 3101 3101 3101 3100 3100 3100 3099 3100 3100 3100 3100 3100 3099 3099 3099 3099 3099 3098 3098 3098 3098 3098 3098 3098 3099 3099 3099 3098 3098 3098 3099 3099 3100 3100
3059 3063 3065 3067 3070 3073 3077 3081 3083 3086 3087 3088 3089 3090 3093 3097 3100 3103 3103 3102 3103 3102 3097 3093 3092 3093 3092 3086 3083 3085 3087 3089 3091 3093 3095 3096 3097 3098 3099 3100 3101 3101 3102 3102 3102 3101 3101 3101 3101 3101 3100 3099 3098 3098 3097 3096 3096 3096 3096 3096 3097 3097 3097 3096 3095 3095 3095 3094 3094 3094 3093 3093 3093 3093 3093 3094 3094 3094 3093 3093 3094 3094 3094 3094 3095 3095
3057 3061 3063 3065 3068 3071 3075 3079 3081 3083 3085 3085 3087 3088 3092 3095 3096 3098 3100 3099 3100 3098 3094 3091 3090 3090 3090 3085 3083 3086 3087 3089 3091 3091 3092 3093 3095 3095 3096 3097 3097 3098 3099 3099 3099 3099 3098 3098 3097 3097 3097 3096 3095 3094 3093 3093 3093 3093 3093 3093 3093 3093 3093 3092 3091 3091 3091 3090 3090 3089 3089 3089 3088 3088 3088 3089 3089 3089 3088 3089 3090 3089 3089 3090 3090 3090
3054 3058 3060 3063 3067 3069 3072 3075 3076 3078 3081 3084 3085 3087 3088 3090 3090 3092 3093 3093 3095 3095 3092 3090 3086 3084 3084 3083 3084 3087 3087 3089 3091 3091 3090 3091 3092 3092 3093 3093 3094 3095 3095 3095 3095 3095 3095 3094 3094 3093 3094 3093 3092 3091 3090 3090 3090 3089 3089 3089 3089 3089 3088 3088 3088 3087 3086 3086 3086 3085 3085 3085 3085 3084 3084 3084 3084 3084 3084 3085 3085 3085 3085 3085 3085 3085
3052 3054 3057 3061 3064 3065 3066 3067 3069 3071 3074 3077 3080 3082 3083 3085 3087 3088 3088 3089 3091 3091 3091 3089 3083 3077 3078 3082 3083 3084 3085 3087 3089 3089 3088 3088 3088 3089 3089 3090 3091 3091 3091 3091 3091 3090 3090 3090 3090 3090 3090 3090 3089 3087 3087 3086 3086 3085 3084 3084 3084 3084 3083 3083 3083 3083 3082 3082 3082 3082 3082 3081 3081 3081 3080 3080 3080 3080 3080 3081 3081 3081 3081 3081 3080 3080
3048 3052 3055 3058 3059 3061 3062 3063 3066 3069 3071 3072 3074 3075 3076 3078 3082 3085 3085 3084 3086 3085 3085 3085 3079 3070 3073 3080 3082 3082 3083 3084 3086 3086 3085 3085 3085 3085 3086 3086 3087 3088 3087 3087 3086 3086 3086 3085 3086 3086 3086 3086 3086 3084 3084 3083 3082 3081 3080 3080 3079 3079 3079 3078 3078 3078 3078 3078 3078 3078 3078 3077 3077 3077 3077 3077 3076 3076 3076 3076 3076 3076 3076 3076 3076 3076
3046 3050 3053 3055 3057 3059 3061 3063 3066 3068 3070 3072 3072 3073 3075 3076 3078 3079 3079 3078 3080 3080 3080 3083 3078 3067 3067 3077 3079 3079 3080 3081 3082 3082 3081 3081 3081 3082 3083 3083 3083 3084 3083 3083 3082 3082 3082 3082 3082 3083 3083 3083 3083 3082 3081 3080 3078 3077 3076 3076 3075 3075 3075 3074 3074 3074 3074 3074 3074 3074 3074 3073 3073 3073 3073 3072 3073 3072 3072 3072 3072 3071 3071 3070 3071 3071
3043 3047 3051 3054 3057 3059 3060 3062 3064 3066 3069 3070 3070 3071 3072 3073 3073 3075 3076 3075 3076 3077 3078 3081 3077 3065 3063 3071 3075 3075 3077 3077 3077 3077 3077 3078 3078 3078 3079 3079 3079 3080 3079 3079 3079 3078 3078 3078 3078 3079 3079 3079 3079 3078 3078 3077 3076 3075 3074 3073 3072 3072 3071 3071 3070 3070 3070 3070 3070 3070 3070 3069 3069 3069 3068 3068 3068 3068 3068 3068 3067 3066 3066 3066 3066 3065
3040 3043 3046 3050 3054 3057 3059 3061 3062 3063 3065 3064 3065 3067 3068 3069 3071 3073 3074 3074 3073 3073 3074 3075 3072 3063 3061 3068 3071 3071 3073 3073 3073 3074 3074 3075 3075 3074 3075 3075 3074 3075 3075 3074 3074 3074 3074 3074 3075 3075 3075 3075 3075 3075 3074 3074 3073 3072 3071 3070 3069 3068 3067 3066 3066 3066 3066 3065 3065 3066 3066 3065 3065 3065 3065 3064 3064 3064 3064 3063 3063 3062 3062 3062 3061 3061
3037 3040 3042 3044 3047 3050 3052 3053 3053 3055 3057 3058 3059 3062 3064 3066 3068 3068 3070 3070 3068 3069 3070 3069 3067 3063 3061 3065 3066 3067 3069 3070 3070 3072 3071 3070 3071 3070 3070 3070 3069 3069 3070 3070 3070 3070 3070 3070 3070 3070 3071 3072 3072 3071 3071 3070 3069 3068 3068 3067 3066 3064 3063 3062 3061 3061 3061 3061 3061 3061 3061 3061 3061 3061 3061 3061 3060 3060 3059 3059 3059 3058 3058 3058 3057 3056
3035 3037 3039 3041 3042 3044 3046 3047 3048 3050 3053 3054 3056 3058 3060 3062 3064 3065 3065 3064 3064 3067 3066 3065 3067 3066 3061 3060 3061 3062 3066 3068 3067 3068 3069 3068 3067 3067 3065 3063 3064 3065 3065 3065 3066 3066 3066 3067 3066 3066 3066 3067 3067 3067 3067 3066 3065 3064 3063 3062 3062 3061 3060 3059 3058 3057 3057 3056 3056 3056 3057 3057 3057 3057 3057 3056 3056 3056 3055 3055 3055 3054 3054 3053 3053 3052
3032 3034 3036 3039 3040 3042 3045 3046 3046 3049 3051 3052 3053 3054 3056 3059 3061 3061 3060 3060 3063 3064 3062 3062 3067 3067 3060 3056 3057 3059 3061 3063 3062 3063 3064 3064 3064 3064 3062 3059 3059 3060 3061 3061 3062 3062 3062 3063 3062 3062 3061 3060 3061 3062 3062 3062 3061 3059 3059 3058 3057 3057 3056 3055 3055 3054 3053 3052 3051 3051 3052 3052 3052 3052 3052 3052 3052 3052 3051 3051 3051 3050 3050 3049 3049 3048
3030 3032 3034 3036 3037 3040 3043 3044 3044 3046 3049 3050 3051 3052 3054 3056 3057 3057 3057 3058 3060 3060 3059 3061 3065 3065 3058 3052 3053 3056 3057 3057 3056 3056 3058 3059 3059 3059 3058 3056 3056 3056 3056 3057 3058 3058 3057 3057 3057 3057 3056 3055 3055 3056 3057 3056 3056 3055 3054 3053 3053 3053 3052 3052 3051 3051 3050 3048 3047 3046 3047 3047 3046 3047 3047 3047 3047 3047 3047 3047 3046 3046 3045 3045 3044 3044
3027 3029 3031 3034 3035 3037 3039 3041 3043 3045 3046 3047 3048 3050 3052 3053 3054 3055 3055 3056 3057 3056 3057 3059 3059 3057 3055 3051 3049 3052 3054 3053 3053 3052 3053 3054 3055 3054 3052 3050 3050 3051 3051 3052 3052 3052 3052 3051 3050 3051 3051 3049 3049 3051 3051 3050 3050 3049 3049 3049 3049 3049 3048 3047 3046 3047 3046 3045 3043 3042 3041 3041 3041 3041 3041 3041 3042 3042 3042 3042 3041 3041 3041 3040 3040 3039
3025 3028 3030 3032 3034 3034 3035 3038 3041 3042 3043 3043 3045 3047 3049 3051 3052 3052 3052 3053 3053 3051 3052 3055 3053 3050 3052 3052 3048 3047 3049 3051 3051 3050 3049 3049 3050 3049 3048 3046 3045 3045 3045 3045 3045 3045 3045 3045 3045 3045 3045 3044 3043 3045 3046 3044 3043 3043 3043 3044 3044 3044 3043 3042 3042 3042 3042 3042 3040 3038 3037 3036 3036 3036 3036 3036 3036 3036 3036 3036 3035 3035 3036 3035 3035 3034
3024 3027 3028 3030 3032 3032 3033 3036 3037 3039 3040 3040 3041 3043 3046 3047 3047 3047 3047 3047 3047 3047 3049 3050 3048 3046 3049 3051 3049 3045 3044 3045 3045 3045 3044 3044 3045 3045 3044 3043 3042 3041 3039 3038 3038 3039 3038 3038 3039 3039 3040 3039 3037 3037 3038 3038 3038 3038 3039 3039 3039 3039 3039 3038 3037 3037 3037 3037 3037 3035 3033 3032 3032 3031 3031 3032 3031 3031 3030 3030 3030 3030 3030 3030 3030 3029
3023 3025 3026 3028 3030 3030 3031 3033 3035 3037 3037 3034 3036 3039 3040 3041 3041 3040 3040 3042 3043 3044 3044 3042 3040 3042 3045 3048 3047 3044 3040 3038 3039 3039 3039 3040 3041 3041 3039 3039 3039 3037 3035 3033 3032 3033 3033 3033 3033 3032 3032 3033 3032 3030 3030 3032 3033 3033 3034 3034 3034 3033 3033 3033 3032 3032 3031 3031 3031 3031 3030 3029 3028 3028 3027 3027 3027 3026 3025 3025 3025 3025 3025 3025 3025 3024
3019 3021 3023 3025 3027 3027 3028 3031 3033 3034 3030 3028 3031 3034 3034 3034 3035 3035 3035 3036 3037 3037 3036 3035 3035 3038 3041 3042 3042 3040 3035 3032 3032 3034 3035 3036 3036 3035 3033 3032 3032 3031 3032 3031 3029 3028 3027 3027 3026 3024 3024 3025 3025 3024 3024 3024 3025 3026 3028 3028 3028 3028 3028 3027 3027 3026 3025 3025 3025 3026 3026 3025 3024 3024 3023 3023 3022 3022 3021 3021 3021 3021 3021 3020 3019 3019
3016 3018 3021 3023 3025 3025 3026 3028 3030 3027 3023 3025 3028 3029 3029 3029 3030 3030 3029 3029 3030 3031 3031 3032 3032 3034 3036 3036 3036 3034 3030 3027 3027 3027 3028 3029 3029 3028 3026 3025 3026 3027 3028 3027 3025 3024 3022 3020 3018 3018 3017 3018 3018 3018 3018 3018 3017 3018 3020 3021 3022 3022 3022 3021 3021 3020 3020 3020 3020 3019 3020 3020 3020 3019 3019 3018 3018 3017 3017 3017 3017 3017 3016 3014 3013 3013
3014 3016 3019 3021 3023 3024 3024 3025 3024 3022 3021 3023 3023 3023 3023 3023 3024 3024 3021 3021 3025 3027 3028 3028 3029 3030 3030 3030 3029 3028 3026 3025 3022 3020 3021 3022 3021 3021 3020 3020 3021 3022 3022 3022 3020 3019 3017 3015 3014 3013 3012 3011 3011 3011 3012 3012 3012 3011 3012 3013 3014 3015 3015 3015 3015 3014 3014 3014 3014 3013 3013 3014 3014 3013 3013 3012 3011 3011 3011 3011 3011 3010 3010 3008 3007 3007
3012 3014 3017 3019 3020 3020 3021 3020 3020 3021 3019 3017 3015 3015 3016 3016 3017 3019 3017 3017 3021 3024 3023 3023 3023 3023 3023 3023 3024 3024 3024 3022 3017 3015 3018 3015 3011 3012 3014 3014 3015 3014 3014 3015 3015 3013 3012 3011 3011 3009 3008 3007 3006 3005 3005 3006 3006 3006 3006 3006 3007 3007 3008 3008 3008 3008 3008 3008 3008 3007 3007 3007 3006 3006 3006 3006 3005 3005 3005 3005 3005 3004 3003 3002 3001 3001
3010 3012 3015 3017 3017 3018 3019 3018 3019 3019 3013 3007 3007 3008 3010 3012 3015 3017 3016 3014 3017 3018 3017 3016 3016 3016 3017 3018 3019 3019 3020 3018 3013 3013 3014 3009 3003 3006 3008 3006 3007 3007 3006 3007 3008 3008 3008 3007 3006 3005 3004 3002 3002 3001 3000 3000 3000 3001 3001 3001 3001 3001 3002 3002 3002 3002 3002 3001 3001 3001 3001 3000 2999 2999 3000 2999 2999 2999 2998 2999 2999 2998 2997 2996 2996 2996
3009 3011 3013 3015 3015 3016 3017 3015 3015 3013 3004 2999 3002 3005 3007 3010 3013 3015 3014 3011 3010 3011 3011 3011 3011 3012 3013 3014 3014 3015 3015 3012 3009 3010 3009 3004 3002 3003 3001 2998 3000 3001 3000 3001 3001 3001 3002 3002 3002 3001 2999 2998 2997 2996 2995 2994 2994 2995 2995 2995 2995 2996 2996 2996 2995 2995 2995 2995 2995 2995 2994 2994 2993 2992 2992 2991 2991 2991 2991 2991 2991 2991 2991 2990 2989 2990
3006 3008 3011 3012 3011 3013 3014 3012 3012 3007 2997 2993 2999 3002 3004 3006 3009 3013 3011 3005 3004 3006 3006 3007 3007 3008 3009 3010 3010 3010 3010 3007 3006 3006 3004 3002 3000 2999 2996 2995 2995 2994 2994 2995 2995 2994 2995 2995 2996 2996 2995 2994 2993 2992 2991 2990 2990 2989 2989 2989 2989 2989 2989 2989 2989 2988 2988 2988 2988 2988 2987 2987 2986 2986 2985 2984 2983 2983 2983 2983 2983 2983 2983 2983 2982 2983
3003 3005 3007 3007 3007 3010 3011 3009 3007 3001 2991 2989 2995 2998 3000 3004 3006 3006 3002 2998 2999 3002 3001 3001 3002 3003 3005 3005 3004 3004 3004 3002 3001 3001 3000 2999 2998 2996 2994 2993 2991 2989 2988 2988 2988 2988 2989 2988 2989 2990 2990 2989 2988 2987 2986 2986 2985 2985 2984 2984 2983 2982 2982 2982 2982 2982 2982 2981 2981 2981 2980 2980 2979 2978 2978 2977 2976 2976 2976 2975 2975 2975 2975 2975 2975 2975
2998 3001 3003 3003 3003 3005 3005 3006 3006 2999 2986 2985 2991 2992 2995 2999 3000 2997 2995 2995 2997 2998 2996 2995 2996 2997 2998 2998 2997 2998 2998 2997 2997 2996 2996 2996 2995 2993 2991 2990 2988 2986 2984 2983 2983 2983 2983 2983 2984 2985 2985 2984 2984 2983 2982 2982 2981 2980 2980 2979 2978 2977 2977 2977 2976 2976 2976 2976 2975 2975 2974 2974 2973 2972 2971 2970 2969 2969 2969 2968 2968 2968 2967 2967 2967 2968
2992 2995 2996 2995 2996 2998 3001 3004 3003 2993 2980 2981 2988 2989 2988 2991 2991 2991 2992 2993 2993 2992 2991 2990 2990 2990 2991 2991 2991 2991 2991 2991 2991 2990 2991 2992 2991 2989 2988 2986 2984 2982 2981 2980 2980 2979 2979 2980 2980 2980 2981 2981 2980 2979 2978 2978 2977 2977 2976 2974 2973 2973 2972 2972 2971 2971 2971 2971 2970 2970 2969 2968 2967 2966 2965 2964 2963 2963 2962 2962 2962 2961 2961 2960 2960 2960
2987 2987 2986 2985 2987 2992 2994 2992 2988 2983 2980 2983 2987 2985 2983 2985 2987 2988 2989 2989 2988 2988 2988 2987 2986 2986 2986 2986 2985 2985 2985 2984 2984 2984 2985 2986 2986 2985 2983 2982 2981 2979 2977 2977 2976 2975 2975 2975 2975 2976 2977 2977 2976 2975 2974 2973 2973 2972 2972 2970 2969 2969 2968 2968 2967 2967 2966 2966 2965 2965 2964 2963 2962 2961 2959 2958 2957 2957 2957 2956 2955 2955 2955 2954 2954 2953
2978 2978 2980 2981 2982 2983 2983 2981 2979 2981 2983 2983 2982 2981 2981 2982 2983 2984 2985 2985 2985 2984 2984 2984 2983 2982 2982 2982 2981 2981 2980 2979 2979 2979 2979 2980 2981 2980 2979 2978 2977 2975 2974 2974 2973 2972 2971 2971 2970 2971 2971 2972 2971 2970 2969 2969 2968 2967 2967 2966 2966 2965 2964 2964 2963 2962 2961 2961 2960 2960 2959 2958 2957 2955 2954 2953 2952 2951 2951 2950 2949 2949 2948 2948 2947 2947
2973 2975 2978 2979 2979 2978 2976 2976 2977 2978 2978 2978 2977 2978 2979 2980 2980 2981 2982 2982 2982 2981 2981 2981 2980 2980 2979 2979 2978 2978 2976 2975 2975 2975 2975 2976 2977 2976 2975 2974 2973 2971 2970 2970 2969 2969 2968 2967 2966 2966 2966 2967 2966 2965 2965 2965 2963 2963 2962 2962 2962 2961 2960 2959 2958 2957 2957 2956 2955 2954 2953 2952 2952 2951 2949 2949 2948 2946 2945 2944 2943 2943 2942 2942 2941 2940
2969 2972 2973 2973 2975 2974 2971 2970 2971 2972 2973 2974 2974 2974 2974 2977 2978 2978 2978 2979 2978 2978 2977 2977 2977 2976 2976 2976 2976 2975 2974 2973 2972 2971 2972 2972 2973 2972 2972 2970 2969 2968 2967 2966 2965 2965 2965 2964 2963 2962 2962 2962 2962 2961 2961 2960 2959 2959 2958 2957 2957 2957 2956 2954 2953 2952 2952 2951 2949 2949 2947 2946 2946 2945 2944 2943 2942 2942 2941 2939 2938 2937 2936 2935 2934 2934
2964 2966 2967 2967 2967 2967 2966 2966 2967 2968 2969 2970 2971 2970 2972 2973 2974 2974 2974 2974 2973 2973 2972 2972 2972 2972 2971 2972 2972 2972 2971 2970 2969 2968 2968 2969 2969 2969 2969 2967 2966 2965 2964 2963 2962 2961 2960 2960 2959 2958 2958 2958 2958 2958 2957 2956 2956 2955 2954 2953 2953 2952 2952 2950 2949 2948 2947 2945 2945 2944 2942 2941 2940 2939 2938 2938 2937 2936 2935 2934 2933 2931 2930 2929 2928 2927
2959 2960 2961 2961 2962 2962 2961 2963 2963 2963 2965 2967 2968 2968 2969 2970 2970 2970 2970 2969 2968 2968 2968 2968 2968 2967 2967 2968 2968 2967 2967 2966 2966 2966 2965 2965 2966 2966 2965 2964 2963 2962 2961 2960 2959 2958 2957 2956 2956 2955 2955 2955 2955 2954 2954 2953 2953 2952 2951 2950 2949 2948 2947 2946 2945 2943 2942 2941 2940 2938 2937 2936 2935 2934 2932 2932 2931 2930 2930 2929 2927 2926 2925 2924 2922 2921
2954 2954 2955 2957 2958 2956 2956 2958 2960 2961 2962 2964 2964 2965 2966 2966 2966 2966 2965 2964 2964 2964 2964 2964 2964 2964 2964 2964 2964 2964 2963 2963 2963 2963 2962 2962 2963 2963 2962 2961 2960 2958 2958 2957 2956 2955 2954 2953 2953 2952 2952 2952 2951 2950 2950 2950 2949 2948 2947 2946 2944 2943 2942 2941 2940 2939 2938 2936 2935 2934 2932 2931 2930 2929 2927 2926 2925 2924 2923 2923 2922 2921 2920 2918 2917 2915
2949 2951 2952 2952 2952 2953 2955 2956 2957 2958 2959 2960 2961 2962 2962 2962 2962 2962 2961 2960 2960 2960 2960 2960 2960 2960 2960 2960 2960 2960 2959 2959 2960 2960 2958 2958 2958 2958 2958 2957 2956 2955 2954 2953 2952 2952 2951 2950 2949 2948 2948 2947 2947 2946 2946 2945 2945 2944 2943 2942 2940 2939 2938 2936 2935 2934 2933 2932 2931 2929 2928 2926 2925 2924 2922 2921 2920 2918 2917 2916 2916 2915 2914 2913 2912 2910